• Join FlightAware (Why Join?)
  • Login
  • US Flag 
09:39PM EDT


 

Airport Tracker/Info


-or-


 

Live Flight TrackerFlight Track Log ✈ SWA188 ✈ 17-Nov-2013 ✈ KLAS - KONT

Flight Track Log - Related Links

Times and Time Zones

All times are in EST time to prevent confusion due to time zone crossing. See the SWA188 flight status page for this flight to view local times or setup timezone preferences in your user account.

Time Position Orientation Groundspeed Altitude Reporting Facility
EST Latitude Longitude Course Direction KTS MPH feet Rate Location/Type
11:46PM 36.0761 -115.1683 271° West 190 219 3,000  Level Los Angeles Center
11:46PM 36.0767 -115.2106 271° West 198 228 4,200 2,220 Climbing Los Angeles Center
11:47PM 36.0400 -115.2706 233° Southwest 253 291 6,600 2,220 Climbing Los Angeles Center
11:48PM 36.0256 -115.2744 192° South 261 300 7,400 3,600 Climbing Los Angeles Center
11:48PM 35.9631 -115.3036 201° Southwest 296 341 10,300 3,540 Climbing Los Angeles Center
11:49PM 35.9289 -115.3056 183° South 303 349 11,100 3,120 Climbing Los Angeles Center
11:50PM 35.8236 -115.3108 182° South 352 405 14,900 3,240 Climbing Los Angeles Center
11:51PM 35.7236 -115.2992 175° South 369 425 17,800 2,640 Climbing Los Angeles Center
11:52PM 35.6303 -115.3589 207° Southwest 393 452 20,400 2,700 Climbing Los Angeles Center
11:53PM 35.5539 -115.4628 228° Southwest 404 465 23,400 2,760 Climbing Los Angeles Center
11:54PM 35.4767 -115.5658 227° Southwest 407 468 26,100 2,220 Climbing Los Angeles Center
11:55PM 35.3928 -115.6786 228° Southwest 416 479 28,000 900 Climbing Los Angeles Center
11:56PM 35.3117 -115.7847 227° Southwest 425 489 28,000  Level Los Angeles Center
11:57PM 35.2317 -115.8928 228° Southwest 427 491 28,000  Level Los Angeles Center
11:58PM 35.1508 -115.9992 227° Southwest 427 491 28,000  Level Los Angeles Center
11:59PM 35.0708 -116.1053 227° Southwest 425 489 28,000  Level Los Angeles Center
12:00AM 34.9897 -116.2111 227° Southwest 428 493 28,000  Level Los Angeles Center
12:01AM 34.8922 -116.3392 227° Southwest 428 493 28,000 -240 Level Los Angeles Center
12:02AM 34.8111 -116.4442 227° Southwest 427 491 27,600 -1,620 Descending Los Angeles Center
12:03AM 34.7294 -116.5464 226° Southwest 421 484 24,700 -2,640 Descending Los Angeles Center
12:04AM 34.6469 -116.6453 225° Southwest 416 479 22,200 -2,400 Descending Los Angeles Center
12:05AM 34.5697 -116.7414 226° Southwest 399 459 19,800 -2,280 Descending Los Angeles Center
12:06AM 34.4928 -116.8344 225° Southwest 392 451 17,600 -2,340 Descending Los Angeles Center
12:07AM 34.4150 -116.9292 225° Southwest 394 453 15,100 -2,640 Descending Los Angeles Center
12:08AM 34.3400 -117.0203 225° Southwest 384 442 12,300 -2,460 Descending Los Angeles Center
12:09AM 34.2661 -117.1097 225° Southwest 377 434 10,100 -1,620 Descending Los Angeles Center
12:10AM 34.1942 -117.1989 226° Southwest 317 365 9,100 -1,560 Descending Los Angeles Center
12:11AM 34.1353 -117.2683 224° Southwest 298 343 7,000 -1,440 Descending Los Angeles Center
12:12AM 34.0833 -117.3333 226° Southwest 255 293 6,500 -1,260 Descending Southern California TRACON
12:13AM 34.0500 -117.3833 231° Southwest 223 257 4,700 -1,800 Descending Southern California TRACON
12:14AM 34.0500 -117.4667 270° West 204 235 2,800 -1,380 Descending Southern California TRACON
12:15AM 34.0500 -117.5167 270° West 154 177 1,900 -840 Descending Southern California TRACON
12:16AM 34.0500 -117.5667 270° West 136 157 1,200 -720 Descending Southern California TRACON
12:18AM 34.0500 -117.6000 270° West  Level FlightAware Approximate
12:25AM 34.0560 -117.6012 270° West  Level Estimated
12:26AM 34.0500 -117.6000 270° West  Level FlightAware Approximate